Location: Oriwa
(40.7500°S, 175.3333°E)
Time: 14:10:35
(UTC+00:00)

Cosmos 1455 Rocket - Pass Details

Date: 03 February 2023
Orbit: 604 x 628 km, 82.5° (Epoch: 30 March)

Event Time Altitude Azimuth Distance (km) Brightness Sun altitude
Rises 16:45:56 0° 182° (S) 2,944 6.9 -8.1°
Reaches altitude 10° 16:48:16 10° 175° (S) 2,032 6.2 -7.7°
Maximum altitude 16:52:37 46° 101° (ESE) 857 4.4 -7.0°
Drops below altitude 10° 16:56:55 10° 27° (NNE) 2,012 5.7 -6.3°
Sets 16:59:13 0° 21° (NNE) 2,912 6.4 -5.9°
